• In Schweiz
  • Länderverzeichnis
  • Für 7 Tage
  • Wassertemperatur
  • Satellitenkarten
  • Wetterkarte
  • Widgets
  • user-avatar
    Anmelden

    Stündliche Wetter Álftanes

    Heute, 18 Oktober, Donnerstag

    Zeit Temperatur Niederschläge Wind Luftdruck Luftfeuchtigkeit
    00:00 +4°C° 0 mm 0 m/S 768 mmHg 91%
    01:00 +4°C° 0 mm 0 m/S 768 mmHg 91%
    02:00 +4°C° 0 mm 0 m/S 768 mmHg 91%
    03:00 +4°C° 0 mm 0 m/S 768 mmHg 91%
    04:00 +4°C° 0 mm 0 m/S 768 mmHg 92%
    05:00 +3°C° 0 mm 0 m/S 768 mmHg 92%
    06:00 +4°C° 0 mm 0 m/S 768 mmHg 89%
    07:00 +5°C° 0 mm 0 m/S 768 mmHg 86%
    08:00 +7°C° 0 mm 1 m/S 768 mmHg 84%
    09:00 +9°C° 0 mm 1 m/S 768 mmHg 78%
    10:00 +9°C° 0 mm 2 m/S 768 mmHg 73%
    11:00 +12°C° 0 mm 2 m/S 767 mmHg 68%
    12:00 +12°C° 0 mm 2 m/S 767 mmHg 69%
    13:00 +12°C° 0 mm 2 m/S 766 mmHg 70%
    14:00 +12°C° 0 mm 3 m/S 766 mmHg 71%
    15:00 +10°C° 0 mm 2 m/S 766 mmHg 77%
    16:00 +9°C° 0 mm 2 m/S 766 mmHg 83%
    17:00 +8°C° 0 mm 2 m/S 765 mmHg 89%
    18:00 +7°C° 0 mm 2 m/S 765 mmHg 90%
    19:00 +7°C° 0 mm 2 m/S 766 mmHg 91%
    20:00 +7°C° 0 mm 2 m/S 766 mmHg 92%
    21:00 +7°C° 0 mm 2 m/S 765 mmHg 93%
    22:00 +7°C° 0 mm 2 m/S 765 mmHg 93%
    23:00 +7°C° 0 mm 3 m/S 765 mmHg 94%

    Morgen, 19 Oktober, Freitag

    Zeit Temperatur Niederschläge Wind Luftdruck Luftfeuchtigkeit
    00:00 +7°C° 0 mm 3 m/S 764 mmHg 93%
    01:00 +7°C° 0 mm 3 m/S 764 mmHg 92%
    02:00 +8°C° 0 mm 3 m/S 764 mmHg 91%
    03:00 +8°C° 0 mm 3 m/S 764 mmHg 91%
    04:00 +8°C° 0 mm 3 m/S 764 mmHg 91%
    05:00 +8°C° 0 mm 3 m/S 764 mmHg 92%
    06:00 +9°C° 0 mm 3 m/S 764 mmHg 91%
    07:00 +9°C° 0 mm 3 m/S 764 mmHg 90%
    08:00 +10°C° 0 mm 3 m/S 764 mmHg 89%
    09:00 +10°C° 0 mm 3 m/S 764 mmHg 87%
    10:00 +11°C° 0 mm 3 m/S 765 mmHg 85%
    11:00 +12°C° 0 mm 3 m/S 765 mmHg 84%
    12:00 +12°C° 0 mm 3 m/S 765 mmHg 85%
    13:00 +12°C° 0 mm 3 m/S 765 mmHg 86%
    14:00 +12°C° 0 mm 3 m/S 765 mmHg 87%
    15:00 +12°C° 0 mm 3 m/S 765 mmHg 89%
    16:00 +12°C° 0 mm 2 m/S 765 mmHg 92%
    17:00 +10°C° 0 mm 2 m/S 765 mmHg 94%
    18:00 +10°C° 0 mm 2 m/S 765 mmHg 94%
    19:00 +10°C° 0 mm 2 m/S 765 mmHg 94%
    20:00 +10°C° 0 mm 3 m/S 765 mmHg 94%
    21:00 +10°C° 0.1 mm 3 m/S 766 mmHg 94%
    22:00 +11°C° 0.1 mm 3 m/S 766 mmHg 93%
    23:00 +11°C° 0.1 mm 3 m/S 766 mmHg 93%

    übermorgen, 20 Oktober, Samstag

    Zeit Temperatur Niederschläge Wind Luftdruck Luftfeuchtigkeit
    00:00 +11°C° 0.1 mm 3 m/S 766 mmHg 93%
    01:00 +11°C° 0.1 mm 3 m/S 766 mmHg 93%
    02:00 +12°C° 0.1 mm 3 m/S 766 mmHg 94%
    03:00 +12°C° 0 mm 4 m/S 766 mmHg 94%
    04:00 +12°C° 0 mm 4 m/S 766 mmHg 95%
    05:00 +12°C° 0 mm 4 m/S 766 mmHg 95%
    06:00 +13°C° 0 mm 4 m/S 766 mmHg 95%
    07:00 +13°C° 0 mm 4 m/S 766 mmHg 95%
    08:00 +14°C° 0 mm 3 m/S 767 mmHg 96%
    09:00 +16°C° 0 mm 3 m/S 767 mmHg 95%
    10:00 +16°C° 0 mm 3 m/S 767 mmHg 94%
    11:00 +17°C° 0 mm 3 m/S 767 mmHg 93%
    12:00 +17°C° 0 mm 3 m/S 767 mmHg 93%
    13:00 +18°C° 0 mm 3 m/S 767 mmHg 93%
    14:00 +18°C° 0 mm 3 m/S 767 mmHg 94%
    15:00 +17°C° 0.1 mm 3 m/S 767 mmHg 95%
    16:00 +17°C° 0.1 mm 3 m/S 767 mmHg 96%
    17:00 +17°C° 0.1 mm 3 m/S 767 mmHg 97%
    18:00 +17°C° 0.1 mm 3 m/S 767 mmHg 97%
    19:00 +17°C° 0.1 mm 3 m/S 767 mmHg 98%
    20:00 +16°C° 0.1 mm 3 m/S 767 mmHg 98%
    21:00 +16°C° 0.1 mm 3 m/S 767 mmHg 98%
    22:00 +16°C° 0.1 mm 3 m/S 767 mmHg 97%
    23:00 +16°C° 0.1 mm 3 m/S 767 mmHg 97%

    21 Oktober, Sonntag

    Zeit Temperatur Niederschläge Wind Luftdruck Luftfeuchtigkeit
    00:00 +16°C° 0.1 mm 3 m/S 766 mmHg 97%
    01:00 +16°C° 0.1 mm 3 m/S 766 mmHg 97%
    02:00 +16°C° 0.1 mm 3 m/S 766 mmHg 96%
    03:00 +15°C° 0.1 mm 4 m/S 765 mmHg 96%
    04:00 +15°C° 0.1 mm 4 m/S 765 mmHg 96%
    05:00 +15°C° 0.1 mm 4 m/S 765 mmHg 96%
    06:00 +15°C° 0.1 mm 4 m/S 765 mmHg 95%
    07:00 +15°C° 0.1 mm 4 m/S 766 mmHg 95%
    08:00 +15°C° 0.1 mm 4 m/S 766 mmHg 95%
    09:00 +14°C° 0.3 mm 5 m/S 766 mmHg 93%
    10:00 +13°C° 0.3 mm 5 m/S 767 mmHg 92%
    11:00 +12°C° 0.3 mm 5 m/S 768 mmHg 90%
    12:00 +12°C° 0 mm 5 m/S 768 mmHg 87%
    13:00 +12°C° 0 mm 4 m/S 768 mmHg 85%
    14:00 +12°C° 0 mm 4 m/S 769 mmHg 82%
    15:00 +11°C° 0 mm 3 m/S 770 mmHg 85%
    16:00 +10°C° 0 mm 3 m/S 770 mmHg 87%
    17:00 +9°C° 0 mm 2 m/S 771 mmHg 89%
    18:00 +9°C° 0 mm 2 m/S 771 mmHg 91%
    19:00 +8°C° 0 mm 2 m/S 772 mmHg 92%
    20:00 +8°C° 0 mm 2 m/S 773 mmHg 94%
    21:00 +7°C° 0 mm 2 m/S 773 mmHg 93%
    22:00 +7°C° 0 mm 2 m/S 774 mmHg 93%
    23:00 +6°C° 0 mm 2 m/S 774 mmHg 92%

    22 Oktober, Montag

    Zeit Temperatur Niederschläge Wind Luftdruck Luftfeuchtigkeit
    00:00 +6°C° 0 mm 2 m/S 775 mmHg 92%
    01:00 +5°C° 0 mm 2 m/S 775 mmHg 92%
    02:00 +5°C° 0 mm 2 m/S 775 mmHg 91%
    03:00 +5°C° 0 mm 2 m/S 776 mmHg 92%
    04:00 +5°C° 0 mm 1 m/S 776 mmHg 92%
    05:00 +5°C° 0 mm 1 m/S 776 mmHg 92%
    06:00 +5°C° 0 mm 2 m/S 777 mmHg 90%
    07:00 +6°C° 0 mm 2 m/S 777 mmHg 87%
    08:00 +7°C° 0 mm 2 m/S 777 mmHg 85%
    09:00 +8°C° 0 mm 2 m/S 778 mmHg 80%
    10:00 +10°C° 0 mm 3 m/S 778 mmHg 76%
    11:00 +11°C° 0 mm 3 m/S 778 mmHg 71%
    12:00 +11°C° 0 mm 3 m/S 778 mmHg 72%
    13:00 +11°C° 0 mm 3 m/S 778 mmHg 72%
    14:00 +11°C° 0 mm 3 m/S 777 mmHg 73%
    15:00 +10°C° 0 mm 3 m/S 778 mmHg 77%
    16:00 +9°C° 0 mm 3 m/S 778 mmHg 81%
    17:00 +9°C° 0 mm 2 m/S 778 mmHg 85%
    18:00 +8°C° 0 mm 2 m/S 778 mmHg 88%
    19:00 +7°C° 0 mm 2 m/S 778 mmHg 91%
    20:00 +7°C° 0 mm 2 m/S 778 mmHg 95%
    21:00 +7°C° 0 mm 2 m/S 778 mmHg 95%
    22:00 +6°C° 0 mm 2 m/S 778 mmHg 95%
    23:00 +5°C° 0 mm 3 m/S 778 mmHg 95%

    23 Oktober, Dienstag

    Zeit Temperatur Niederschläge Wind Luftdruck Luftfeuchtigkeit
    00:00 +7°C° 0 mm 3 m/S 777 mmHg 95%
    01:00 +7°C° 0 mm 3 m/S 777 mmHg 94%
    02:00 +7°C° 0 mm 3 m/S 777 mmHg 94%
    03:00 +8°C° 0 mm 3 m/S 777 mmHg 93%
    04:00 +8°C° 0 mm 3 m/S 776 mmHg 92%
    05:00 +9°C° 0 mm 3 m/S 776 mmHg 91%
    06:00 +9°C° 0 mm 3 m/S 776 mmHg 89%
    07:00 +9°C° 0 mm 3 m/S 776 mmHg 88%
    08:00 +10°C° 0 mm 3 m/S 776 mmHg 86%
    09:00 +10°C° 0 mm 3 m/S 776 mmHg 84%
    10:00 +11°C° 0 mm 4 m/S 776 mmHg 82%
    11:00 +11°C° 0 mm 4 m/S 776 mmHg 80%
    12:00 +11°C° 0 mm 4 m/S 775 mmHg 80%
    13:00 +11°C° 0 mm 4 m/S 775 mmHg 79%
    14:00 +11°C° 0 mm 4 m/S 774 mmHg 78%
    15:00 +11°C° 0 mm 3 m/S 774 mmHg 81%
    16:00 +10°C° 0 mm 3 m/S 774 mmHg 84%
    17:00 +9°C° 0 mm 2 m/S 774 mmHg 87%
    18:00 +9°C° 0 mm 2 m/S 774 mmHg 88%
    19:00 +8°C° 0 mm 2 m/S 774 mmHg 89%
    20:00 +8°C° 0 mm 2 m/S 774 mmHg 90%
    21:00 +7°C° 0 mm 2 m/S 774 mmHg 92%
    22:00 +7°C° 0 mm 2 m/S 774 mmHg 93%
    23:00 +6°C° 0 mm 2 m/S 774 mmHg 95%
    Mehr zeigen